SAS2545 ESSA-EGPH

Flight info

Callsign SAS2545
Flight time N/A
Altitude 36000
Route ARS N623 IBGAX DCT NIBNO DCT KLONN DCT ADN DCT NAXIL/N0394F240 P600 PTH
Aircraft A321/M-SDE3FGHIRWY/LB1

Departure

Time 2026-05-07 11:09
Airport Stockholm-Arlanda Airport (ESSA)

Arrival

Time N/A
Airport Edinburgh Airport (EGPH)
Time Latitude Longitude Altitude Speed Heading
2026-05-07 10:40 59.65335 17.92893 111 ft 0 kts 102°
2026-05-07 11:00 59.65336 17.92878 112 ft 4 kts 101°
2026-05-07 11:00 59.65340 17.92825 112 ft 4 kts 92°
2026-05-07 11:01 59.65338 17.92773 112 ft 4 kts 68°
2026-05-07 11:01 59.65329 17.92744 109 ft 4 kts 344°
2026-05-07 11:01 59.65325 17.92746 109 ft 0 kts 329°
2026-05-07 11:03 59.65326 17.92745 109 ft 1 kts 329°
2026-05-07 11:03 59.65360 17.92705 112 ft 11 kts 330°
2026-05-07 11:03 59.65456 17.92600 109 ft 20 kts 331°
2026-05-07 11:04 59.65602 17.92494 104 ft 23 kts 345°
2026-05-07 11:04 59.65747 17.92425 103 ft 20 kts 356°
2026-05-07 11:04 59.65888 17.92467 107 ft 20 kts 10°
2026-05-07 11:04 59.66026 17.92517 110 ft 20 kts 10°
2026-05-07 11:05 59.66162 17.92566 113 ft 20 kts 10°
2026-05-07 11:05 59.66294 17.92613 117 ft 18 kts 10°
2026-05-07 11:05 59.66415 17.92656 121 ft 17 kts
2026-05-07 11:05 59.66521 17.92617 122 ft 12 kts 340°
2026-05-07 11:06 59.66545 17.92599 123 ft 0 kts 340°
2026-05-07 11:08 59.66546 17.92599 123 ft 1 kts 340°
2026-05-07 11:08 59.66581 17.92574 124 ft 12 kts 339°
2026-05-07 11:08 59.66617 17.92432 124 ft 14 kts 254°
2026-05-07 11:09 59.66480 17.92319 122 ft 43 kts 191°
2026-05-07 11:09 59.65920 17.92115 115 ft 118 kts 190°
2026-05-07 11:09 59.64920 17.91747 209 ft 164 kts 190°
2026-05-07 11:09 59.63808 17.91341 952 ft 162 kts 189°
2026-05-07 11:10 59.62685 17.90938 1649 ft 169 kts 189°
2026-05-07 11:10 59.61484 17.90294 1975 ft 192 kts 207°
2026-05-07 11:10 59.60544 17.88215 2243 ft 214 kts 237°
2026-05-07 11:10 59.59763 17.85641 2696 ft 221 kts 239°
2026-05-07 11:11 59.59003 17.83014 3418 ft 221 kts 240°
2026-05-07 11:11 59.58257 17.80345 4038 ft 228 kts 242°
2026-05-07 11:11 59.57513 17.77446 4407 ft 248 kts 243°
2026-05-07 11:11 59.56833 17.74241 5138 ft 257 kts 257°
2026-05-07 11:12 59.56749 17.70705 5961 ft 261 kts 273°
2026-05-07 11:12 59.56858 17.67119 6826 ft 263 kts 272°
2026-05-07 11:12 59.56947 17.63508 7699 ft 264 kts 272°
2026-05-07 11:12 59.57025 17.59879 8581 ft 265 kts 272°
2026-05-07 11:13 59.57096 17.56290 9442 ft 265 kts 272°
2026-05-07 11:13 59.57167 17.52645 10244 ft 268 kts 272°
2026-05-07 11:13 59.57241 17.48825 10528 ft 290 kts 272°
2026-05-07 11:13 59.57320 17.44710 10749 ft 310 kts 272°
2026-05-07 11:14 59.57400 17.40406 11328 ft 316 kts 272°
2026-05-07 11:14 59.57479 17.36060 12040 ft 318 kts 272°
2026-05-07 11:14 59.57560 17.31687 12777 ft 320 kts 272°
2026-05-07 11:14 59.57640 17.27292 13511 ft 322 kts 271°
2026-05-07 11:15 59.57723 17.22858 13950 ft 323 kts 271°
2026-05-07 11:15 59.57805 17.18431 14043 ft 323 kts 271°
2026-05-07 11:15 59.57887 17.14012 14065 ft 322 kts 272°